FW0087 Weather Reports


time (UTC)temp
F
wind
direction
speed
knots
gust
knots
rain 1hr
in
rain 24hr
in
rain mn
in
humidity
%
barometer
mb
20260507070101 40 236 0.0 0.0 0.00 0.47 0.00 88 1012.3
20260507065545 40 236 0.0 0.0 0.00 0.59 0.00 88 1012.2
20260507065045 40 236 0.0 0.0 0.00 0.59 0.00 88 1012.1
20260507064552 40 236 0.0 0.9 0.00 0.59 0.00 88 1012.1
20260507064047 40 236 0.0 0.0 0.00 0.59 0.00 88 1011.8
20260507063544 40 236 0.0 0.0 0.00 0.59 0.00 88 1012.1
20260507063043 40 236 0.0 0.9 0.00 0.59 0.00 88 1012.1
20260507062545 40 236 0.0 0.9 0.00 0.59 0.00 88 1012.0
20260507062042 40 236 0.0 0.9 0.00 0.59 0.00 88 1012.1
20260507061541 40 236 0.0 0.9 0.00 0.59 0.00 88 1012.2
20260507061041 40 236 0.0 0.9 0.00 0.59 0.00 88 1012.4
20260507060542 40 306 0.0 0.9 0.00 0.59 0.00 89 1012.3
20260507060038 40 306 0.0 2.6 0.00 0.59 0.00 89 1012.3
20260507055537 40 319 0.0 2.6 0.00 0.69 0.00 89 1012.6
20260507055036 41 312 0.0 1.7 0.00 0.69 0.00 89 1012.4
20260507054549 41 251 0.0 1.7 0.00 0.69 0.00 89 1012.5
20260507054035 41 245 0.0 2.6 0.00 0.69 0.00 89 1012.4
20260507053536 41 28 0.0 1.7 0.00 0.69 0.00 90 1012.5
20260507053034 41 35 0.0 1.7 0.00 0.69 0.00 90 1012.6
20260507052533 41 313 0.0 2.6 0.00 0.69 0.00 90 1012.6
20260507052033 41 324 0.0 2.6 0.00 0.69 0.00 90 1012.6
20260507051531 41 44 0.0 1.7 0.00 0.69 0.00 90 1012.6
20260507051029 41 287 0.0 1.7 0.00 0.69 0.00 90 1012.6
20260507050530 41 294 0.0 0.9 0.00 0.69 0.00 90 1012.7
20260507050039 41 237 0.0 1.7 0.00 0.69 0.00 90 1012.8
20260507045527 41 259 0.0 1.7 0.00 0.74 0.00 90 1012.7
20260507045026 41 263 0.0 1.7 0.00 0.74 0.00 91 1012.6
20260507044525 41 234 0.0 2.6 0.00 0.74 0.00 91 1012.4
20260507044027 41 49 0.0 2.6 0.00 0.74 0.00 91 1012.4
20260507043525 41 315 0.0 3.5 0.00 0.74 0.00 91 1012.4
20260507043022 41 320 0.9 3.5 0.00 0.74 0.00 91 1012.5
20260507042521 41 293 0.0 1.7 0.00 0.74 0.00 91 1012.4
20260507042019 41 287 0.0 3.5 0.00 0.74 0.00 91 1012.4
20260507041518 41 288 0.0 3.5 0.00 0.74 0.00 91 1012.4
20260507041019 41 290 0.9 3.5 0.00 0.74 0.00 91 1012.3
20260507040517 41 30 0.0 3.5 0.00 0.74 0.00 91 1012.3
20260507040016 41 319 0.0 3.5 0.00 0.74 0.00 91 1012.2
20260507035514 41 263 0.0 2.6 0.00 0.80 0.74 91 1012.2
20260507035017 41 272 0.0 2.6 0.00 0.80 0.74 91 1012.1
20260507034513 41 163 0.0 2.6 0.00 0.80 0.74 91 1012.1
20260507034113 41 223 0.0 1.7 0.00 0.80 0.74 91 1012.1
20260507033513 41 259 0.0 1.7 0.00 0.80 0.74 91 1012.0
20260507033012 41 271 0.0 1.7 0.00 0.80 0.74 90 1011.9
20260507032513 41 279 0.0 1.7 0.00 0.80 0.74 90 1011.9
20260507032012 41 282 0.0 0.9 0.00 0.80 0.74 90 1011.9
20260507031511 41 313 0.0 4.3 0.00 0.80 0.74 90 1011.9
20260507031011 41 297 0.0 3.5 0.00 0.80 0.74 90 1011.9
20260507030510 42 324 0.0 1.7 0.00 0.80 0.74 90 1011.8
20260507030013 42 350 0.0 2.6 0.00 0.80 0.74 90 1012.0
20260507025510 42 306 0.0 2.6 0.00 0.88 0.74 90 1012.0
20260507025009 42 291 0.0 3.5 0.00 0.88 0.74 90 1012.1
20260507024509 42 231 0.9 3.5 0.00 0.88 0.74 89 1012.0
20260507024010 42 36 0.0 1.7 0.00 0.88 0.74 89 1012.0
20260507023508 42 289 0.0 1.7 0.00 0.88 0.74 89 1012.0
20260507023008 42 305 0.0 1.7 0.00 0.88 0.74 89 1012.0
20260507022508 42 324 0.0 2.6 0.01 0.88 0.74 89 1011.9
20260507022010 42 74 0.0 2.6 0.01 0.88 0.74 89 1011.9
20260507021507 43 343 0.0 2.6 0.01 0.88 0.74 89 1012.0
20260507021007 43 9 0.0 3.5 0.01 0.88 0.74 89 1012.1
20260507020507 43 351 0.9 3.5 0.01 0.88 0.74 88 1012.1
20260507020007 43 355 0.9 3.5 0.01 0.88 0.74 89 1011.9
20260507015506 43 344 0.9 3.5 0.01 0.96 0.74 89 1011.9
20260507015007 44 337 0.9 4.3 0.01 0.96 0.74 89 1011.9
20260507014505 44 338 0.9 4.3 0.01 0.96 0.74 90 1011.8
20260507014005 44 355 0.0 2.6 0.01 0.96 0.74 90 1011.8
20260507013504 44 344 0.0 2.6 0.01 0.96 0.74 90 1011.9
20260507013004 45 253 0.0 2.6 0.01 0.96 0.74 90 1011.9
20260507012504 45 29 0.0 0.9 0.00 0.95 0.73 90 1011.8
20260507012006 45 29 0.0 0.0 0.00 0.95 0.73 90 1011.8
20260507011503 45 29 0.0 0.0 0.00 0.95 0.73 89 1011.7
20260507011002 45 29 0.0 0.0 0.00 0.95 0.73 89 1011.5
20260507010501 45 29 0.0 0.0 0.00 0.95 0.73 89 1011.4
20260507010001 45 29 0.0 0.0 0.00 0.95 0.73 89 1011.4
20260507005601 45 29 0.0 0.9 0.00 1.05 0.73 89 1011.4
20260507005100 45 29 0.0 0.9 0.00 1.05 0.73 89 1011.2
20260507004559 45 53 0.0 0.9 0.00 1.05 0.73 89 1011.1
20260507004059 45 273 0.0 0.9 0.00 1.05 0.73 89 1011.2
20260507003558 45 273 0.0 0.9 0.00 1.05 0.73 89 1011.0
20260507003058 45 273 0.0 0.9 0.00 1.05 0.73 88 1011.1
20260507002557 45 273 0.0 0.9 0.00 1.05 0.73 88 1011.0
20260507002057 45 273 0.0 0.0 0.00 1.05 0.73 87 1010.8
20260507001605 45 273 0.0 0.0 0.00 1.05 0.73 87 1010.6
20260507001056 45 273 0.0 0.0 0.00 1.05 0.73 87 1010.7
20260507000554 45 273 0.0 0.0 0.00 1.05 0.73 87 1010.6
20260507000121 45 273 0.0 0.0 0.00 1.05 0.73 87 1010.6
20260506235554 46 273 0.0 0.0 0.00 1.10 0.73 86 1010.5
20260506235056 46 273 0.0 0.0 0.00 1.10 0.73 86 1010.6
20260506234612 46 273 0.0 0.0 0.00 1.10 0.73 86 1010.5
20260506234053 46 273 0.0 0.0 0.00 1.10 0.73 85 1010.5
20260506233554 46 273 0.0 0.0 0.00 1.10 0.73 85 1010.5
20260506233053 46 273 0.0 0.0 0.00 1.10 0.73 85 1010.5
20260506232553 46 273 0.0 0.0 0.00 1.10 0.73 85 1010.4
20260506232051 46 273 0.0 0.0 0.00 1.10 0.73 85 1010.3
20260506231848 46 273 0.0 0.0 0.00 1.10 0.73 85 1010.0
20260506231543 46 273 0.0 0.0 0.00 1.10 0.73 85 1010.2
20260506231040 46 273 0.0 0.9 0.00 1.10 0.73 85 1010.3
20260506230540 46 273 0.0 1.7 0.00 1.10 0.73 85 1010.2
20260506230038 46 273 0.0 1.7 0.00 1.10 0.73 85 1010.2
20260506225540 46 273 0.0 0.9 0.00 1.10 0.73 85 1010.1
20260506225038 46 273 0.0 0.9 0.00 1.10 0.73 85 1010.0
20260506224538 46 273 0.0 0.0 0.00 1.10 0.73 85 1009.9
20260506224037 46 273 0.0 0.0 0.00 1.10 0.73 85 1009.9
20260506223537 46 273 0.0 0.0 0.00 1.10 0.73 85 1010.0
20260506223038 46 273 0.0 0.0 0.00 1.10 0.73 85 1009.9
20260506222537 46 273 0.0 0.9 0.00 1.10 0.73 85 1009.8
20260506222037 46 273 0.0 0.9 0.00 1.10 0.73 85 1009.9
20260506221550 45 273 0.0 0.0 0.00 1.10 0.73 85 1010.0
20260506221036 45 273 0.0 0.0 0.00 1.10 0.73 85 1009.9
20260506220537 45 273 0.0 0.0 0.00 1.10 0.73 86 1010.1
20260506220043 45 273 0.0 0.9 0.00 1.10 0.73 85 1010.2
20260506215535 45 273 0.0 0.9 0.00 1.10 0.73 85 1010.2
20260506215036 45 275 0.0 0.9 0.00 1.10 0.73 85 1010.2
20260506214536 45 276 0.0 0.9 0.00 1.10 0.73 85 1010.1
20260506214035 45 307 0.0 0.9 0.00 1.10 0.73 84 1010.0
20260506213536 45 307 0.0 0.9 0.00 1.10 0.73 86 1010.0
20260506213041 45 307 0.0 2.6 0.00 1.10 0.73 84 1009.9
20260506212532 45 271 0.9 2.6 0.00 1.10 0.73 85 1010.0
20260506212034 45 5 0.0 2.6 0.00 1.10 0.73 85 1009.8
20260506211540 45 38 0.9 2.6 0.00 1.10 0.73 84 1009.7
20260506211030 45 24 0.0 2.6 0.00 1.10 0.73 84 1009.7
20260506210530 45 32 0.0 1.7 0.00 1.10 0.73 86 1009.7
20260506210037 45 47 0.0 2.6 0.00 1.10 0.73 84 1009.9
20260506205528 45 49 0.0 3.5 0.00 1.10 0.73 83 1009.9
20260506205028 45 5 0.9 3.5 0.00 1.10 0.73 84 1009.9
20260506204533 45 16 0.0 2.6 0.00 1.10 0.73 86 1009.9
20260506204027 45 19 0.9 2.6 0.00 1.10 0.73 85 1009.9
20260506203527 45 360 0.0 2.6 0.00 1.10 0.73 85 1009.9
20260506203027 45 280 0.0 3.5 0.00 1.10 0.73 84 1009.9
20260506202527 45 287 0.9 3.5 0.00 1.10 0.73 85 1009.9
20260506202027 45 5 0.0 2.6 0.00 1.10 0.73 84 1009.8
20260506201535 45 332 0.0 5.2 0.00 1.10 0.73 84 1009.8
20260506201026 46 13 0.9 5.2 0.00 1.10 0.73 87 1009.8
20260506200526 45 348 0.9 4.3 0.00 1.10 0.73 84 1009.7
20260506200031 45 323 0.9 4.3 0.00 1.10 0.73 85 1009.6
20260506195526 45 15 0.9 4.3 0.00 1.10 0.73 85 1009.4
20260506195025 45 37 0.9 3.5 0.00 1.10 0.73 86 1009.4
20260506194526 45 15 0.0 5.2 0.00 1.10 0.73 87 1009.5
20260506194024 45 14 0.9 5.2 0.00 1.10 0.73 86 1009.6
20260506193525 45 340 0.9 5.2 0.00 1.10 0.73 87 1009.7
20260506193041 45 360 0.9 2.6 0.00 1.10 0.73 87 1009.7
20260506192524 44 320 0.0 4.3 0.00 1.10 0.73 88 1009.7
20260506192027 44 19 1.7 5.2 0.00 1.10 0.73 88 1009.7
20260506191524 44 13 2.6 6.1 0.00 1.10 0.73 88 1009.7
20260506191024 44 360 0.9 7.0 0.00 1.10 0.73 89 1009.7
20260506190523 44 30 2.6 7.0 0.00 1.10 0.73 88 1009.6
20260506190023 44 333 3.5 7.0 0.00 1.10 0.73 87 1009.6
20260506185521 44 344 1.7 3.5 0.00 1.10 0.73 89 1009.5
20260506185022 44 63 0.9 7.8 0.00 1.10 0.73 90 1009.4
20260506184525 43 33 2.6 8.7 0.00 1.10 0.73 90 1009.6
20260506184020 44 22 2.6 7.0 0.00 1.10 0.73 90 1009.5
20260506183520 43 344 0.9 7.8 0.00 1.10 0.73 91 1009.4
20260506183020 43 49 2.6 7.8 0.00 1.10 0.73 91 1009.6
20260506182518 43 24 2.6 7.8 0.00 1.10 0.73 91 1009.6
20260506182022 43 16 1.7 7.8 0.00 1.10 0.73 91 1009.6
20260506181534 43 14 1.7 7.0 0.00 1.10 0.73 91 1009.7
20260506181018 43 5 0.9 7.8 0.00 1.10 0.73 91 1009.7
20260506180519 43 11 2.6 7.8 0.00 1.10 0.73 91 1009.6
20260506180017 43 20 2.6 4.3 0.00 1.10 0.73 91 1009.2
20260506175519 43 10 2.6 4.3 0.00 1.10 0.73 91 1009.2
20260506175016 43 341 2.6 4.3 0.00 1.10 0.73 91 1009.1
20260506174516 44 338 0.9 5.2 0.00 1.10 0.73 91 1009.0
20260506174019 43 15 1.7 5.2 0.00 1.10 0.73 91 1008.9
20260506173518 43 37 0.9 5.2 0.00 1.10 0.73 91 1008.8
20260506173015 44 347 1.7 5.2 0.00 1.10 0.73 91 1008.7
20260506172516 44 355 0.9 5.2 0.00 1.10 0.73 92 1008.6
20260506172015 43 347 1.7 5.2 0.00 1.10 0.73 92 1008.7
20260506171517 43 15 1.7 9.6 0.00 1.10 0.73 92 1008.6
20260506171017 43 324 3.5 8.7 0.00 1.10 0.73 92 1008.9
20260506170514 43 38 2.6 5.2 0.00 1.10 0.73 92 1008.8
20260506170013 43 13 1.7 7.0 0.00 1.10 0.73 93 1008.7
20260506165517 43 19 1.7 7.8 0.00 1.10 0.73 93 1008.6
20260506165013 43 31 2.6 7.8 0.00 1.10 0.73 92 1008.5
20260506164511 43 13 1.7 5.2 0.00 1.10 0.73 93 1008.5
20260506164015 43 360 1.7 7.0 0.00 1.10 0.73 92 1008.5
20260506163511 43 23 3.5 7.0 0.00 1.10 0.73 92 1008.4
20260506163016 43 36 0.9 5.2 0.00 1.10 0.73 93 1008.3
20260506162512 43 40 0.9 5.2 0.00 1.10 0.73 93 1008.5
20260506162010 43 21 1.7 7.0 0.00 1.10 0.73 93 1008.6
20260506161508 43 11 2.6 7.0 0.00 1.10 0.73 93 1008.5
20260506161011 43 311 0.9 4.3 0.00 1.10 0.73 93 1008.6
20260506160508 43 25 0.9 4.3 0.00 1.10 0.73 93 1008.5
20260506160009 43 27 1.7 4.3 0.01 1.10 0.73 93 1008.6
20260506155506 43 19 0.9 5.2 0.01 1.10 0.73 93 1008.5
20260506155006 44 342 0.9 3.5 0.01 1.10 0.73 94 1008.5
20260506154506 43 24 0.9 3.5 0.01 1.10 0.73 93 1008.5
20260506154004 43 29 1.7 3.5 0.01 1.10 0.73 93 1008.7
20260506153503 43 30 0.9 3.5 0.01 1.10 0.73 93 1008.7
20260506153001 43 355 0.9 3.5 0.01 1.10 0.73 93 1008.7
20260506152504 43 9 0.9 3.5 0.01 1.10 0.73 93 1008.6
20260506152001 43 33 1.7 5.2 0.01 1.10 0.73 93 1008.6
20260506151601 43 22 0.9 7.0 0.01 1.10 0.73 93 1008.6
20260506151100 43 360 2.6 7.0 0.01 1.10 0.73 93 1008.6
20260506150600 43 351 1.7 3.5 0.01 1.10 0.73 93 1008.6
20260506150057 43 28 0.9 7.0 0.00 1.09 0.72 93 1008.5
20260506145556 43 348 1.7 3.5 0.00 1.09 0.72 93 1008.4
20260506145054 43 15 0.9 2.6 0.00 1.09 0.72 93 1008.3
20260506144558 43 15 0.9 2.6 0.00 1.09 0.72 93 1008.1
20260506144059 43 5 1.7 4.3 0.00 1.09 0.72 93 1008.0
20260506143558 43 17 1.7 4.3 0.00 1.09 0.72 93 1008.1
20260506143053 43 12 0.0 4.3 0.00 1.09 0.72 93 1008.0
20260506142553 43 15 0.9 2.6 0.00 1.09 0.72 93 1008.1
20260506142052 43 90 0.0 3.5 0.00 1.09 0.72 93 1008.0
20260506141555 43 89 0.0 3.5 0.00 1.09 0.72 93 1008.0
20260506141055 43 69 0.0 4.3 0.01 1.09 0.72 93 1008.1
20260506140555 43 59 0.0 4.3 0.01 1.09 0.72 93 1008.1
20260506140052 43 24 0.0 3.5 0.01 1.09 0.72 93 1008.2
20260506135552 43 71 0.0 4.3 0.01 1.09 0.72 93 1008.1
20260506135051 43 26 0.9 5.2 0.01 1.09 0.72 93 1008.2
20260506134551 43 60 0.0 5.2 0.01 1.09 0.72 94 1008.1
20260506134054 43 73 0.9 5.2 0.01 1.09 0.72 94 1008.0
20260506133551 42 74 0.0 6.1 0.01 1.09 0.72 94 1008.0
20260506133102 42 58 1.7 6.1 0.01 1.09 0.72 94 1008.0
20260506132551 42 76 1.7 3.5 0.02 1.09 0.72 94 1008.0
20260506132053 42 82 0.9 3.5 0.02 1.09 0.72 94 1008.1
20260506131552 42 76 0.9 4.3 0.03 1.09 0.72 94 1008.1
20260506131051 42 80 0.9 4.3 0.02 1.08 0.71 94 1008.2
20260506130550 42 71 0.9 2.6 0.03 1.08 0.71 94 1008.2
20260506130056 42 45 0.0 2.6 0.03 1.08 0.71 94 1008.3
20260506125549 42 59 0.9 2.6 0.03 1.08 0.71 94 1008.3
20260506125049 42 86 0.0 3.5 0.04 1.08 0.71 94 1008.2
20260506124549 42 80 0.9 3.5 0.04 1.08 0.71 94 1008.1
20260506124049 42 68 0.9 3.5 0.04 1.08 0.71 94 1008.1
20260506123548 42 67 0.9 2.6 0.04 1.08 0.71 94 1008.2
20260506123048 42 61 0.0 2.6 0.05 1.08 0.71 94 1008.3
20260506122547 42 83 0.0 2.6 0.04 1.07 0.70 94 1008.3
20260506122046 42 72 0.9 2.6 0.04 1.07 0.70 94 1008.3
20260506121545 42 49 0.0 2.6 0.04 1.06 0.69 94 1008.4
20260506121044 42 32 0.9 3.5 0.06 1.06 0.69 94 1008.4
20260506120544 42 25 0.0 4.3 0.05 1.05 0.68 94 1008.2
20260506120043 42 78 1.7 4.3 0.06 1.05 0.68 94 1008.1
20260506115543 42 54 0.0 3.5 0.06 1.05 0.68 94 1008.2
20260506115041 42 46 0.9 4.3 0.06 1.04 0.67 94 1008.0
20260506114546 42 94 1.7 4.3 0.06 1.04 0.67 94 1007.8
20260506114039 42 65 1.7 4.3 0.07 1.04 0.67 94 1007.9
20260506113538 42 90 1.7 5.2 0.06 1.03 0.66 94 1008.0
20260506113036 42 86 1.7 5.2 0.07 1.03 0.66 94 1008.0
20260506112536 42 82 0.9 5.2 0.08 1.03 0.66 94 1008.2
20260506112033 42 80 1.7 3.5 0.09 1.03 0.66 94 1008.3
20260506111532 42 65 1.7 5.2 0.10 1.02 0.65 94 1008.1
20260506111030 42 86 1.7 5.2 0.09 1.00 0.63 94 1008.2
20260506110529 42 68 0.9 3.5 0.09 0.99 0.62 94 1008.3
20260506110030 42 82 0.9 2.6 0.09 0.99 0.62 94 1008.2
20260506105528 42 61 0.9 4.3 0.10 0.99 0.62 94 1008.4
20260506105027 42 89 1.7 5.2 0.09 0.98 0.61 94 1008.4
20260506104553 42 71 0.9 5.2 0.09 0.98 0.61 94 1008.5
20260506104029 42 65 0.0 5.2 0.09 0.97 0.60 94 1008.5
20260506103528 42 86 1.7 5.2 0.08 0.96 0.59 94 1008.5
20260506103027 42 65 0.9 6.1 0.08 0.96 0.59 94 1008.5
20260506102525 42 53 0.9 6.1 0.08 0.95 0.57 94 1008.6
20260506102025 42 30 1.7 3.5 0.07 0.94 0.56 94 1008.7
20260506101525 42 65 0.9 2.6 0.05 0.92 0.55 94 1008.4
20260506101026 42 21 0.0 2.6 0.05 0.91 0.54 94 1008.6
20260506100524 42 16 0.0 3.5 0.04 0.90 0.53 94 1008.3
20260506100023 43 84 0.0 3.5 0.05 0.90 0.53 94 1008.2
20260506095523 43 30 0.0 2.6 0.05 0.89 0.52 94 1008.1
20260506095023 43 60 0.0 1.7 0.05 0.89 0.52 94 1007.9
20260506094529 43 84 0.9 2.6 0.06 0.89 0.52 94 1007.9
20260506094023 43 52 0.0 3.5 0.05 0.88 0.51 94 1008.0
20260506093522 43 78 0.9 3.5 0.06 0.88 0.51 94 1007.8
20260506093021 42 102 0.9 3.5 0.07 0.88 0.51 94 1007.8
20260506092521 42 86 1.7 3.5 0.07 0.87 0.50 94 1007.9
20260506092023 42 56 0.0 2.6 0.09 0.87 0.50 94 1007.9
20260506091521 42 37 0.0 3.5 0.10 0.87 0.50 94 1007.9
20260506091021 43 62 0.9 3.5 0.10 0.86 0.49 94 1007.8
20260506090524 43 51 1.7 5.2 0.11 0.86 0.49 94 1007.7
20260506090018 43 60 0.9 4.3 0.11 0.85 0.48 94 1008.1
20260506085517 42 86 1.7 4.3 0.11 0.84 0.47 94 1008.2
20260506085017 43 65 0.9 4.3 0.12 0.84 0.47 94 1008.4
20260506084517 43 61 1.7 4.3 0.12 0.83 0.46 94 1008.5
20260506084019 43 43 0.0 3.5 0.13 0.83 0.46 94 1008.8
20260506083517 43 68 0.0 2.6 0.12 0.82 0.45 94 1008.8
20260506083033 43 78 0.0 2.6 0.12 0.81 0.44 94 1009.0
20260506082516 43 55 0.9 2.6 0.11 0.80 0.43 94 1008.7
20260506082015 43 89 0.0 2.6 0.10 0.78 0.41 94 1008.9
20260506081515 43 25 0.0 6.1 0.09 0.77 0.40 94 1008.7
20260506081017 43 83 1.7 6.1 0.09 0.76 0.39 94 1008.4
20260506080514 43 74 0.9 3.5 0.09 0.75 0.38 94 1008.5
20260506073510 44 81 1.7 7.0 0.12 0.69 0.32 94 1008.2
20260506073007 44 30 0.9 5.2 0.13 0.69 0.32 94 1008.4
20260506072506 45 53 0.9 5.2 0.14 0.69 0.32 94 1008.4
20260506072005 45 9 1.7 5.2 0.14 0.68 0.31 94 1008.5
20260506071505 45 26 0.9 3.5 0.14 0.68 0.31 94 1008.4
20260506071004 45 69 0.9 3.5 0.14 0.67 0.30 94 1008.3
20260506070504 45 18 0.0 3.5 0.13 0.65 0.28 94 1008.3